When you browse on this site, cookies collect data to enhance your experience and personalize the content and advertising you see.
Visit our Privacy Policy to learn more. By continuing to use the site, you agree to this use of cookies and data.
  • In Austria
  • List of Countries
  • For 7 days
  • Water Temperature
  • Weather Map
  • News
  • Weather Widgets
  • user-avatar
    Login

    Hourly Weather Zastavky-Yabluniv

    Today, 25 August, Sunday

    Time Temperature Precipitation Wind Pressure Humidity
    00:00 +17°C° 0 mm 3 mps 739 mmHg 76%
    01:00 +17°C° 0 mm 3 mps 739 mmHg 77%
    02:00 +17°C° 0 mm 3 mps 739 mmHg 80%
    03:00 +17°C° 0 mm 3 mps 739 mmHg 81%
    04:00 +16°C° 0 mm 3 mps 739 mmHg 83%
    05:00 +16°C° 0 mm 3 mps 739 mmHg 84%
    06:00 +17°C° 0 mm 3 mps 739 mmHg 81%
    07:00 +18°C° 0 mm 3 mps 739 mmHg 77%
    08:00 +20°C° 0 mm 4 mps 739 mmHg 75%
    09:00 +21°C° 0 mm 4 mps 739 mmHg 71%
    10:00 +23°C° 0 mm 4 mps 739 mmHg 67%
    11:00 +25°C° 0 mm 4 mps 739 mmHg 63%
    12:00 +26°C° 0 mm 4 mps 739 mmHg 62%
    13:00 +27°C° 0 mm 4 mps 739 mmHg 60%
    14:00 +28°C° 0 mm 4 mps 739 mmHg 58%
    15:00 +28°C° 0 mm 4 mps 739 mmHg 60%
    16:00 +28°C° 0 mm 4 mps 738 mmHg 62%
    17:00 +28°C° 0 mm 4 mps 738 mmHg 64%
    18:00 +26°C° 0.1 mm 4 mps 738 mmHg 69%
    19:00 +23°C° 0.1 mm 4 mps 738 mmHg 75%
    20:00 +21°C° 0.1 mm 5 mps 738 mmHg 80%
    21:00 +20°C° 0.5 mm 5 mps 738 mmHg 82%
    22:00 +19°C° 0.5 mm 4 mps 738 mmHg 84%
    23:00 +18°C° 0.5 mm 4 mps 738 mmHg 86%

    Tomorrow, 26 August, Monday

    Time Temperature Precipitation Wind Pressure Humidity
    00:00 +18°C° 0.4 mm 4 mps 739 mmHg 87%
    01:00 +18°C° 0.4 mm 4 mps 739 mmHg 87%
    02:00 +17°C° 0.4 mm 4 mps 739 mmHg 87%
    03:00 +17°C° 0 mm 4 mps 739 mmHg 86%
    04:00 +15°C° 0 mm 4 mps 739 mmHg 86%
    05:00 +16°C° 0 mm 3 mps 738 mmHg 85%
    06:00 +17°C° 0 mm 4 mps 738 mmHg 81%
    07:00 +18°C° 0 mm 4 mps 739 mmHg 78%
    08:00 +19°C° 0 mm 4 mps 739 mmHg 74%
    09:00 +21°C° 0 mm 4 mps 739 mmHg 69%
    10:00 +23°C° 0 mm 4 mps 739 mmHg 65%
    11:00 +26°C° 0 mm 5 mps 739 mmHg 61%
    12:00 +27°C° 0 mm 5 mps 739 mmHg 58%
    13:00 +28°C° 0 mm 5 mps 739 mmHg 56%
    14:00 +29°C° 0 mm 5 mps 739 mmHg 54%
    15:00 +28°C° 0 mm 5 mps 738 mmHg 56%
    16:00 +28°C° 0 mm 4 mps 738 mmHg 58%
    17:00 +28°C° 0 mm 4 mps 738 mmHg 60%
    18:00 +26°C° 0 mm 4 mps 738 mmHg 63%
    19:00 +23°C° 0 mm 4 mps 737 mmHg 66%
    20:00 +22°C° 0 mm 4 mps 737 mmHg 69%
    21:00 +21°C° 0 mm 4 mps 738 mmHg 67%
    22:00 +21°C° 0 mm 4 mps 738 mmHg 65%
    23:00 +20°C° 0 mm 4 mps 738 mmHg 63%

    Day after tomorrow, 27 August, Tuesday

    Time Temperature Precipitation Wind Pressure Humidity
    00:00 +19°C° 0 mm 4 mps 738 mmHg 64%
    01:00 +19°C° 0 mm 4 mps 738 mmHg 64%
    02:00 +18°C° 0 mm 3 mps 738 mmHg 65%
    03:00 +18°C° 0 mm 3 mps 738 mmHg 67%
    04:00 +17°C° 0 mm 3 mps 737 mmHg 68%
    05:00 +17°C° 0 mm 3 mps 737 mmHg 70%
    06:00 +18°C° 0 mm 3 mps 738 mmHg 69%
    07:00 +19°C° 0 mm 3 mps 738 mmHg 69%
    08:00 +20°C° 0 mm 3 mps 738 mmHg 69%
    09:00 +22°C° 0 mm 3 mps 738 mmHg 65%
    10:00 +25°C° 0 mm 3 mps 738 mmHg 61%
    11:00 +26°C° 0 mm 3 mps 738 mmHg 58%
    12:00 +27°C° 0 mm 3 mps 738 mmHg 54%
    13:00 +28°C° 0 mm 4 mps 738 mmHg 51%
    14:00 +29°C° 0 mm 4 mps 738 mmHg 48%
    15:00 +29°C° 0 mm 3 mps 738 mmHg 51%
    16:00 +28°C° 0 mm 3 mps 738 mmHg 54%
    17:00 +28°C° 0 mm 3 mps 737 mmHg 56%
    18:00 +26°C° 0 mm 3 mps 737 mmHg 58%
    19:00 +24°C° 0 mm 3 mps 737 mmHg 60%
    20:00 +21°C° 0 mm 3 mps 737 mmHg 62%
    21:00 +20°C° 0 mm 3 mps 737 mmHg 65%
    22:00 +20°C° 0 mm 3 mps 738 mmHg 68%
    23:00 +19°C° 0 mm 4 mps 738 mmHg 71%

    28 August, Wednesday

    Time Temperature Precipitation Wind Pressure Humidity
    00:00 +19°C° 0 mm 4 mps 738 mmHg 71%
    01:00 +18°C° 0 mm 4 mps 738 mmHg 72%
    02:00 +18°C° 0 mm 4 mps 738 mmHg 72%
    03:00 +18°C° 0 mm 4 mps 738 mmHg 72%
    04:00 +17°C° 0 mm 4 mps 737 mmHg 72%
    05:00 +17°C° 0 mm 4 mps 737 mmHg 71%
    06:00 +18°C° 0 mm 4 mps 737 mmHg 70%
    07:00 +19°C° 0 mm 4 mps 737 mmHg 68%
    08:00 +20°C° 0 mm 5 mps 738 mmHg 66%
    09:00 +22°C° 0 mm 5 mps 737 mmHg 62%
    10:00 +25°C° 0 mm 5 mps 737 mmHg 58%
    11:00 +26°C° 0 mm 5 mps 737 mmHg 53%
    12:00 +27°C° 0 mm 5 mps 737 mmHg 51%
    13:00 +28°C° 0 mm 5 mps 737 mmHg 49%
    14:00 +29°C° 0 mm 5 mps 737 mmHg 47%
    15:00 +28°C° 0 mm 5 mps 736 mmHg 50%
    16:00 +28°C° 0 mm 4 mps 736 mmHg 53%
    17:00 +28°C° 0 mm 4 mps 736 mmHg 56%
    18:00 +26°C° 0 mm 4 mps 736 mmHg 59%
    19:00 +23°C° 0 mm 4 mps 736 mmHg 63%
    20:00 +21°C° 0 mm 4 mps 736 mmHg 67%
    21:00 +20°C° 0 mm 4 mps 736 mmHg 65%
    22:00 +20°C° 0 mm 4 mps 736 mmHg 64%
    23:00 +19°C° 0 mm 4 mps 736 mmHg 63%

    29 August, Thursday

    Time Temperature Precipitation Wind Pressure Humidity
    00:00 +19°C° 0 mm 4 mps 736 mmHg 66%
    01:00 +18°C° 0 mm 4 mps 736 mmHg 68%
    02:00 +18°C° 0 mm 4 mps 735 mmHg 71%
    03:00 +17°C° 0 mm 4 mps 735 mmHg 74%
    04:00 +17°C° 0 mm 4 mps 735 mmHg 77%
    05:00 +15°C° 0 mm 4 mps 735 mmHg 79%
    06:00 +17°C° 0 mm 4 mps 735 mmHg 77%
    07:00 +17°C° 0 mm 5 mps 735 mmHg 75%
    08:00 +19°C° 0 mm 5 mps 735 mmHg 72%
    09:00 +21°C° 0 mm 5 mps 735 mmHg 68%
    10:00 +23°C° 0 mm 5 mps 736 mmHg 63%
    11:00 +25°C° 0 mm 5 mps 736 mmHg 59%
    12:00 +26°C° 0 mm 5 mps 735 mmHg 56%
    13:00 +27°C° 0 mm 5 mps 735 mmHg 53%
    14:00 +28°C° 0 mm 5 mps 735 mmHg 50%
    15:00 +28°C° 0 mm 5 mps 735 mmHg 52%
    16:00 +27°C° 0 mm 5 mps 735 mmHg 54%
    17:00 +27°C° 0 mm 4 mps 734 mmHg 56%
    18:00 +25°C° 0 mm 4 mps 734 mmHg 59%
    19:00 +23°C° 0 mm 4 mps 734 mmHg 62%
    20:00 +21°C° 0 mm 4 mps 734 mmHg 65%
    21:00 +20°C° 0 mm 4 mps 734 mmHg 63%
    22:00 +20°C° 0 mm 4 mps 734 mmHg 61%
    23:00 +19°C° 0 mm 5 mps 735 mmHg 58%

    30 August, Friday

    Time Temperature Precipitation Wind Pressure Humidity
    00:00 +19°C° 0 mm 4 mps 735 mmHg 58%
    01:00 +18°C° 0 mm 4 mps 734 mmHg 58%
    02:00 +17°C° 0 mm 4 mps 734 mmHg 57%
    03:00 +15°C° 0 mm 4 mps 734 mmHg 58%
    04:00 +14°C° 0 mm 4 mps 734 mmHg 59%
    05:00 +14°C° 0 mm 3 mps 734 mmHg 60%
    06:00 +15°C° 0 mm 4 mps 734 mmHg 60%
    07:00 +15°C° 0 mm 4 mps 734 mmHg 61%
    08:00 +17°C° 0 mm 4 mps 735 mmHg 61%
    09:00 +19°C° 0 mm 4 mps 735 mmHg 59%
    10:00 +21°C° 0 mm 4 mps 735 mmHg 57%
    11:00 +23°C° 0 mm 4 mps 736 mmHg 54%
    12:00 +25°C° 0 mm 4 mps 735 mmHg 52%
    13:00 +27°C° 0 mm 4 mps 735 mmHg 49%
    14:00 +28°C° 0 mm 4 mps 735 mmHg 47%
    15:00 +27°C° 0 mm 4 mps 735 mmHg 49%
    16:00 +27°C° 0 mm 4 mps 735 mmHg 51%
    17:00 +27°C° 0 mm 4 mps 735 mmHg 53%
    18:00 +25°C° 0 mm 4 mps 735 mmHg 54%
    19:00 +22°C° 0 mm 4 mps 735 mmHg 55%
    20:00 +20°C° 0 mm 4 mps 735 mmHg 57%
    21:00 +19°C° 0 mm 4 mps 735 mmHg 53%
    22:00 +19°C° 0 mm 4 mps 735 mmHg 49%
    23:00 +18°C° 0 mm 4 mps 735 mmHg 46%
    Show more